Simultaneous Nadir Overpasses (SNOs) Predictions

Prediction of SNOs between NOAA-19 and NPP Satellite Orbit:

Table of predicted SNOs for the next 14.0 days since TLE Epoch: 4/10/2015
Index Date (NOAA-19) Time (NOAA-19) Lat,Lon (NOAA-19) SZA (NOAA-19 ) Date (NPP) Time (NPP) Lat,Lon (NPP) SZA (NPP ) Distance(km) Time Diff (sec)
1 04/22/2015 15:01:48 81.01, -97.22 72.25 04/22/2015 15:02:57 81.02, -97.33 72.23 2.05 69
2 04/22/2015 15:52:54 -81.01, 70.10 107.78 04/22/2015 15:53:42 -81.02, 69.95 107.78 2.70 48
3 04/22/2015 16:43:50 81.01,-122.43 72.18 04/22/2015 16:44:26 81.00,-122.42 72.16 0.34 36
4 04/22/2015 17:34:56 -81.00, 44.88 107.84 04/22/2015 17:35:11 -81.01, 44.86 107.85 0.28 15
5 04/22/2015 18:25:53 81.01,-148.03 72.17 04/22/2015 18:25:56 81.01,-147.87 72.15 2.66 3
6 04/22/2015 19:16:58 -81.00, 19.65 107.91 04/22/2015 19:16:40 -80.99, 19.77 107.92 2.13 18
7 04/22/2015 20:07:54 81.00,-172.87 72.06 04/22/2015 20:07:25 81.00,-172.96 72.08 1.66 29
8 04/22/2015 20:59:00 -80.99, -5.57 107.97 04/22/2015 20:58:10 -81.00, -5.69 107.93 2.08 50




NCC Satellite Simultaneous Nadir Overpasses (SNOs) Prediction Service
